2018-083A (43662 NORAD) Tracking and Keplerian Element Data

This shows tracking and keplerian element data for the satellite.

Feedback or suggestion? Click here.




ElementValue
Catalog43662
Name2018-083A
Epoch Orbit219
Epoch Day316.48993962
Epoch Year2018
RAAN337.2573
Inclination97.5281
Eccentricity0.0001499
Argument of Perigee81.9209
Mean Anonmoly81.3342
Mean Motion15.16326947
Decay Rate3.05E-06
L11 43662U 18083A 18316.48993962 .00000305 00000-0 19161-4 0 9990
L22 43662 97.5281 337.2573 0001499 81.9209 81.3342 15.16326947 2194

Live tracking and technical data element details for 2018-083A (NORAD 43662). 2018-083A can be tracked NOW for your location showing map with azimuth and elevation plus other details from your city location.

Track the satellite on the map from your city or location and see movement details for azimuth, elevation, latitude, longitude, range, height, and movement on the map or in text.







IsCatalogInMostPopularTable: catalog: 43662, numindb: 4
Update: records affected: 1



GetName: 43662 2018-083A

Hit Count: updated at: Tue, 13 Nov 2018 06:25:13 GMT